Tracking 28790 objects as of 18-Apr-2024
HD Live streaming from Space Station
objects crossing your sky now

COSMOS 2251 DEB

Track COSMOS 2251 DEB now!
10-day predictions


NORAD ID: 37956
Int'l Code: 1993-036BPF
Perigee: 530.1 km
Apogee: 556.5 km
Inclination: 74.0 °
Period: 95.4 minutes
Semi major axis: 6914 km
RCS: 0.0022 m2 (small)
Launch date: June 16, 1993
Source: Commonwealth of Independent States (former USSR) (CIS)
Launch site: PLESETSK MISSILE AND SPACE COMPLEX (PKMTR)

Note: This is SATELLITE DEBRIS
Your satellite tracking list
Your tracking list is empty




NASA's NSSDC Master Catalog

Two Line Element Set (TLE):
1 37956U 93036BPF 24109.00325604  .00176349  00000-0  10543-1 0  9991
2 37956  74.0242 224.0759 0019102  83.7065 276.6302 15.10016254715264
Source of the keplerian elements: AFSPC